Powrót do katalogu

CZ-6A DEB

AktywnySSO
NORAD 54984·DEBRIS·🇨🇳 China

Wystrzelony Nov 11, 2022 z Taiyuan Satellite Launch Center

Loading…

Następne Przeloty (najbliższe 24 godziny)

TLE

ŚwieżeSource: Space-Track

Epoka: Sep 13, 2026, 07:06 UTC

1 54984U 22151TZ  26256.29625358  .00000416  00000-0  38463-3 0  9990
2 54984  98.9455 189.7567 0219136 308.4338  49.7322 13.77739059191364

Śledź CZ-6A DEB w czasie rzeczywistym z AllMySat

Download on the App Store